CDT,Max TemperatureF,Mean TemperatureF,Min TemperatureF,Max Dew PointF,MeanDew PointF,Min DewpointF,Max Humidity, Mean Humidity, Min Humidity, Max Sea Level PressureIn, Mean Sea Level PressureIn, Min Sea Level PressureIn, Max VisibilityMiles, Mean VisibilityMiles, Min VisibilityMiles, Max Wind SpeedMPH, Mean Wind SpeedMPH, Max Gust SpeedMPH,PrecipitationIn, CloudCover, Events, WindDirDegrees
2011-10-1,82,66,50,52,46,42,86,56,26,30.22,30.14,30.07,10,10,10,22,6,28,0.00,0,,46
2011-10-2,79,65,50,49,46,43,89,59,29,30.25,30.19,30.15,10,10,10,14,6,18,0.00,0,,48
2011-10-3,80,64,47,52,47,43,86,56,26,30.28,30.22,30.17,10,10,10,13,4,17,0.00,0,,64
2011-10-4,83,66,48,57,49,45,93,61,28,30.28,30.21,30.14,10,10,10,12,2,15,0.00,0,,104
2011-10-5,85,69,52,59,53,49,93,61,29,30.21,30.14,30.05,10,10,8,12,3,16,0.00,0,,76
2011-10-6,88,74,59,66,62,56,93,70,46,30.12,30.09,30.06,10,10,8,18,8,24,0.00,1,,105
2011-10-7,89,77,64,70,66,62,93,68,43,30.15,30.11,30.08,10,10,7,20,9,25,0.00,2,,104
2011-10-8,89,78,67,68,67,64,100,75,50,30.13,30.08,30.03,10,9,4,22,11,28,0.01,2,,97
2011-10-9,86,76,66,70,67,64,100,78,55,30.06,30.01,29.93,10,9,6,21,9,26,0.05,3,Rain,90
2011-10-10,86,75,64,66,64,61,93,69,44,30.03,29.97,29.89,10,10,10,15,6,21,T,0,Rain,58
2011-10-11,89,76,62,68,63,59,93,66,39,29.96,29.89,29.83,10,10,7,13,3,15,0.00,1,,36
2011-10-12,86,75,64,72,67,63,100,78,55,29.88,29.83,29.79,10,5,0,15,4,20,0.00,3,Fog-Rain-Thunderstorm,210
2011-10-13,86,72,57,68,59,41,97,60,22,29.91,29.85,29.81,10,8,2,16,6,25,0.00,2,,335
2011-10-14,86,71,56,61,54,47,93,61,29,30.03,29.98,29.92,10,10,5,13,5,17,0.00,0,,112
2011-10-15,88,73,57,63,58,53,97,65,32,30.12,30.06,30.01,10,7,0,10,2,15,0.00,0,Fog,153
2011-10-16,88,73,57,66,62,55,100,72,43,30.14,30.07,30.01,10,8,0,10,4,15,0.00,0,Fog,154
2011-10-17,86,73,60,71,65,59,100,78,55,30.02,29.94,29.79,10,5,0,13,5,18,0.00,5,Fog,150
2011-10-18,73,60,47,72,58,44,100,76,52,30.00,29.82,29.72,10,8,2,29,11,37,0.03,5,Rain,345
2011-10-19,71,58,44,45,36,29,93,58,22,30.09,30.00,29.95,10,10,10,26,11,37,0.00,0,,312
2011-10-20,74,56,37,44,36,28,92,56,19,30.19,30.13,30.07,10,10,10,14,3,17,0.00,0,,304
2011-10-21,80,63,46,54,46,41,86,56,26,30.25,30.19,30.15,10,10,10,13,4,16,0.00,0,,149
2011-10-22,82,69,55,60,57,51,97,71,45,30.19,30.13,30.07,10,9,4,13,4,18,0.00,1,,177
2011-10-23,84,71,58,68,62,56,100,76,51,30.12,30.06,30.01,10,8,2,15,6,22,0.07,4,Rain,197
2011-10-24,84,71,57,68,64,54,100,73,46,30.22,30.14,30.09,10,5,0,13,4,16,0.00,3,Fog,51
2011-10-25,84,68,52,62,57,50,97,67,37,30.22,30.14,30.07,10,8,0,14,5,18,0.00,0,Fog,145
2011-10-26,84,70,56,70,60,55,100,72,44,30.08,30.02,29.93,10,4,0,12,5,18,0.00,1,Fog,134
2011-10-27,86,73,59,69,62,57,100,72,44,29.94,29.90,29.84,10,4,0,14,4,20,0.00,1,Fog,147
2011-10-28,68,59,49,65,53,42,93,78,62,30.24,30.05,29.90,10,9,2,21,13,29,0.27,7,Rain,358
2011-10-29,69,55,41,44,39,33,96,61,26,30.32,30.23,30.16,10,10,8,20,6,24,0.00,0,,2
2011-10-30,72,56,40,43,39,36,93,60,27,30.25,30.19,30.12,10,10,10,12,2,15,0.00,0,,69
2011-10-31,77,59,40,45,41,38,93,59,25,30.27,30.21,30.16,10,10,9,12,3,16,0.00,0,,45